KellyUSA Airport, TX

7:28 PM CDT on June 28, 2017 (GMT -0500)
Kelly Air Force Base

Weather History for KSKF - September, 2012

Change the Weather History Date:

Sunday, September 30, 2012

  Actual Average Record
Temperature  
Mean Temperature 74 °F -  
Max Temperature 81 °F 85 °F 95 °F (1997)
Min Temperature 68 °F 64 °F 53 °F (1996)
Cooling Degree Days 9    
Growing Degree Days 24 (Base 50)    
Moisture  
Dew Point 63 °F    
Average Humidity 70    
Maximum Humidity 83    
Minimum Humidity 52    
Precipitation  
Precipitation 0.00 in - - ()
Sea Level Pressure  
Sea Level Pressure 29.83 in    
Wind  
Wind Speed 15 mph (NNW)    
Max Wind Speed 26 mph    
Max Gust Speed 32 mph    
Visibility 10 miles    
Events      
Averages and records for this station are not official NWS values.
T = Trace of Precipitation, MM = Missing Value Source: NWS Daily Summary

Daily Weather History Graph

Daily Weather History Graph

Search for Another Location

Airport or City:

Trip Planner

Search our weather history database for the weather conditions in past years. The results will help you decide how hot, cold, wet, or windy it might be!

Date:

Astronomy

Sep. 30, 2012 Rise Set
Actual Time 7:27 AM CDT 7:20 PM CDT
Civil Twilight 7:03 AM CDT 7:44 PM CDT
Nautical Twilight 6:35 AM CDT 8:11 PM CDT
Astronomical Twilight 6:08 AM CDT 8:39 PM CDT
Moon 7:33 PM CDT (9/30) 7:52 AM CDT (9/30)
Length of Visible Light 12h 40m
Length of Day
11h 53m
Full, 100% of the Moon is Illuminated
Sep 30
Full
Oct 8
Last Quarter
Oct 15
New
Oct 21
First Quarter
Oct 29
Full

Hourly Weather History & Observations

Time (CDT) Temp. Heat Index Dew Point Humidity Pressure Visibility Wind Dir Wind Speed Gust Speed Precip Events Conditions
12:34 AM 71.6 °F - 64.4 °F 78% 29.81 in 10.0 mi NNW 17.3 mph 24.2 mph N/A   Overcast
12:55 AM 71.8 °F - 64.2 °F 77% 29.80 in 10.0 mi NNW 15.0 mph - N/A   Overcast
1:03 AM 71.6 °F - 64.4 °F 78% 29.80 in 10.0 mi NNW 13.8 mph - N/A   Overcast
1:23 AM 71.6 °F - 64.4 °F 78% 29.80 in 10.0 mi NNW 12.7 mph - N/A   Mostly Cloudy
1:24 AM 71.6 °F - 64.4 °F 78% 29.80 in 10.0 mi NNW 12.7 mph - N/A   Mostly Cloudy
1:25 AM 71.6 °F - 64.4 °F 78% 29.80 in 10.0 mi NNW 13.8 mph - N/A   Mostly Cloudy
1:33 AM 71.6 °F - 64.4 °F 78% 29.80 in 10.0 mi NNW 15.0 mph - N/A   Mostly Cloudy
1:34 AM 71.6 °F - 64.4 °F 78% 29.80 in 10.0 mi NNW 15.0 mph - N/A   Mostly Cloudy
1:42 AM 71.6 °F - 64.4 °F 78% 29.80 in 10.0 mi NNW 13.8 mph - N/A   Overcast
1:54 AM 71.6 °F - 64.4 °F 78% 29.80 in 10.0 mi NNW 13.8 mph - N/A   Overcast
1:55 AM 71.1 °F - 63.9 °F 78% 29.80 in 10.0 mi NNW 13.8 mph - N/A   Overcast
2:24 AM 71.6 °F - 62.6 °F 73% 29.79 in 10.0 mi NNW 15.0 mph - N/A   Overcast
2:29 AM 71.6 °F - 62.6 °F 73% 29.79 in 10.0 mi NNW 16.1 mph 20.7 mph N/A   Overcast
2:30 AM 71.6 °F - 62.6 °F 73% 29.79 in 10.0 mi NNW 15.0 mph 20.7 mph N/A   Overcast
2:55 AM 70.0 °F - 63.0 °F 78% 29.79 in 10.0 mi NNW 15.0 mph - N/A   Mostly Cloudy
2:57 AM 69.8 °F - 62.6 °F 78% 29.79 in 10.0 mi NNW 12.7 mph - N/A   Mostly Cloudy
3:26 AM 69.8 °F - 62.6 °F 78% 29.79 in 10.0 mi NNW 9.2 mph - N/A   Overcast
3:45 AM 69.8 °F - 62.6 °F 78% 29.78 in 10.0 mi NNW 11.5 mph - N/A   Overcast
3:46 AM 69.8 °F - 62.6 °F 78% 29.78 in 10.0 mi NNW 12.7 mph - N/A   Overcast
3:49 AM 69.8 °F - 62.6 °F 78% 29.78 in 10.0 mi NNW 15.0 mph 20.7 mph N/A   Overcast
3:50 AM 69.8 °F - 62.6 °F 78% 29.78 in 10.0 mi NNW 15.0 mph 20.7 mph N/A   Overcast
3:55 AM 70.0 °F - 62.6 °F 77% 29.78 in 10.0 mi NNW 12.7 mph 20.7 mph N/A   Overcast
4:00 AM 69.8 °F - 62.6 °F 78% 29.78 in 10.0 mi NNW 10.4 mph - N/A   Overcast
4:55 AM 70.0 °F - 62.1 °F 76% 29.79 in 10.0 mi North 19.6 mph 27.6 mph N/A   Overcast
5:03 AM 69.8 °F - 62.6 °F 78% 29.79 in 10.0 mi North 18.4 mph 26.5 mph N/A   Overcast
5:37 AM 69.8 °F - 62.6 °F 78% 29.78 in 10.0 mi NNW 15.0 mph - N/A   Scattered Clouds
5:55 AM 68.7 °F - 61.9 °F 79% 29.79 in 10.0 mi NNW 15.0 mph - N/A   Clear
6:18 AM 69.8 °F - 62.6 °F 78% 29.80 in 10.0 mi NNW 16.1 mph - N/A   Mostly Cloudy
6:38 AM 68.0 °F - 62.6 °F 83% 29.80 in 10.0 mi NNW 15.0 mph - N/A   Scattered Clouds
6:55 AM 68.9 °F - 61.9 °F 78% 29.81 in 10.0 mi NNW 13.8 mph 20.7 mph N/A   Scattered Clouds
7:31 AM 68.0 °F - 62.6 °F 83% 29.82 in 10.0 mi NNW 11.5 mph - N/A   Mostly Cloudy
7:39 AM 68.0 °F - 62.6 °F 83% 29.82 in 10.0 mi NNW 10.4 mph - N/A   Scattered Clouds
7:55 AM 68.5 °F - 61.9 °F 79% 29.82 in 10.0 mi NNW 10.4 mph - N/A   Partly Cloudy
8:55 AM 71.4 °F - 62.4 °F 73% 29.85 in 10.0 mi North 19.6 mph - N/A   Clear
9:13 AM 71.6 °F - 62.6 °F 73% 29.86 in 10.0 mi North 20.7 mph - N/A   Mostly Cloudy
9:55 AM 71.6 °F - 62.2 °F 72% 29.86 in 10.0 mi North 12.7 mph 23.0 mph N/A   Overcast
10:15 AM 73.4 °F - 62.6 °F 69% 29.87 in 10.0 mi NNW 18.4 mph - N/A   Scattered Clouds
10:51 AM 75.2 °F - 62.6 °F 65% 29.88 in 10.0 mi North 18.4 mph - N/A   Mostly Cloudy
10:55 AM 74.7 °F - 62.8 °F 66% 29.87 in 10.0 mi North 20.7 mph - N/A   Mostly Cloudy
10:56 AM 75.2 °F - 62.6 °F 65% 29.88 in 10.0 mi North 23.0 mph - N/A   Mostly Cloudy
11:09 AM 75.2 °F - 62.6 °F 65% 29.88 in 10.0 mi North 18.4 mph 26.5 mph N/A   Mostly Cloudy
11:12 AM 75.2 °F - 62.6 °F 65% 29.87 in 10.0 mi North 18.4 mph 26.5 mph N/A   Mostly Cloudy
11:16 AM 75.2 °F - 62.6 °F 65% 29.88 in 10.0 mi North 16.1 mph 25.3 mph N/A   Mostly Cloudy
11:17 AM 75.2 °F - 62.6 °F 65% 29.87 in 10.0 mi North 18.4 mph 25.3 mph N/A   Mostly Cloudy
11:22 AM 75.2 °F - 62.6 °F 65% 29.87 in 10.0 mi North 19.6 mph 25.3 mph N/A   Mostly Cloudy
11:24 AM 75.2 °F - 62.6 °F 65% 29.87 in 10.0 mi North 17.3 mph 23.0 mph N/A   Mostly Cloudy
11:31 AM 75.2 °F - 62.6 °F 65% 29.87 in 10.0 mi North 12.7 mph - N/A   Mostly Cloudy
11:35 AM 77.0 °F - 62.6 °F 61% 29.87 in 10.0 mi North 16.1 mph - N/A   Scattered Clouds
11:40 AM 77.0 °F - 62.6 °F 61% 29.86 in 10.0 mi North 17.3 mph 24.2 mph N/A   Mostly Cloudy
11:42 AM 77.0 °F - 62.6 °F 61% 29.86 in 10.0 mi North 19.6 mph 24.2 mph N/A   Mostly Cloudy
11:44 AM 77.0 °F - 62.6 °F 61% 29.86 in 10.0 mi North 17.3 mph 24.2 mph N/A   Mostly Cloudy
11:45 AM 77.0 °F - 62.6 °F 61% 29.86 in 10.0 mi North 18.4 mph 24.2 mph N/A   Mostly Cloudy
11:50 AM 77.0 °F - 62.6 °F 61% 29.86 in 10.0 mi North 16.1 mph 24.2 mph N/A   Mostly Cloudy
11:55 AM 77.0 °F - 63.1 °F 62% 29.86 in 10.0 mi NNW 16.1 mph 23.0 mph N/A   Mostly Cloudy
11:56 AM 77.0 °F - 62.6 °F 61% 29.86 in 10.0 mi NNW 17.3 mph 23.0 mph N/A   Mostly Cloudy
12:37 PM 77.0 °F - 62.6 °F 61% 29.86 in 10.0 mi NNW 18.4 mph 25.3 mph N/A   Scattered Clouds
12:38 PM 77.0 °F - 62.6 °F 61% 29.86 in 10.0 mi North 18.4 mph 25.3 mph N/A   Mostly Cloudy
12:55 PM 76.8 °F - 63.1 °F 63% 29.86 in 10.0 mi NNW 15.0 mph - N/A   Mostly Cloudy
1:24 PM 78.8 °F - 62.6 °F 57% 29.85 in 10.0 mi North 20.7 mph 25.3 mph N/A   Scattered Clouds
1:26 PM 78.8 °F - 62.6 °F 57% 29.85 in 10.0 mi NNW 19.6 mph 26.5 mph N/A   Mostly Cloudy
1:35 PM 78.8 °F - 62.6 °F 57% 29.84 in 10.0 mi NNW 26.5 mph 32.2 mph N/A   Scattered Clouds
1:55 PM 79.2 °F - 62.8 °F 57% 29.83 in 10.0 mi North 18.4 mph 32.2 mph N/A   Partly Cloudy
2:55 PM 80.4 °F 81.7 °F 63.1 °F 55% 29.80 in 10.0 mi NNW 16.1 mph 23.0 mph N/A   Partly Cloudy
3:55 PM 80.8 °F 81.8 °F 61.9 °F 52% 29.79 in 10.0 mi NNW 24.2 mph 28.8 mph N/A   Partly Cloudy
4:55 PM 79.9 °F - 62.2 °F 55% 29.79 in 10.0 mi North 20.7 mph 26.5 mph N/A   Clear
5:55 PM 78.8 °F - 61.5 °F 55% 29.79 in 10.0 mi North 16.1 mph 20.7 mph N/A   Clear
6:55 PM 77.0 °F - 61.3 °F 58% 29.80 in 10.0 mi NNE 9.2 mph - N/A   Clear
7:55 PM 72.7 °F - 63.0 °F 71% 29.81 in 10.0 mi North 8.1 mph - N/A   Clear
8:55 PM 70.0 °F - 62.2 °F 76% 29.83 in 10.0 mi NNE 4.6 mph - N/A   Clear
9:55 PM 70.9 °F - 62.4 °F 75% 29.87 in 10.0 mi North 5.8 mph - N/A   Clear
10:55 PM 69.1 °F - 61.9 °F 78% 29.88 in 10.0 mi North 6.9 mph - N/A   Partly Cloudy
11:55 PM 69.3 °F - 61.0 °F 75% 29.87 in 10.0 mi NNE 8.1 mph - N/A   Clear